Location: Auckland
(36.8670°S, 174.7670°E)
Time: 10:04:56
(UTC+13:00)

Envisat - Pass Details

Date: 24 January 2019
Orbit: 764 x 766 km, 98.2° (Epoch: 15 February)

Event Time Altitude Azimuth Distance (km) Brightness Sun altitude
Rises 21:27:44 0° 176° (S) 3,270 6.7 -9.5°
Reaches altitude 10° 21:30:09 10° 182° (S) 2,336 6.0 -9.9°
Maximum altitude 21:35:00 43° 252° (WSW) 1,077 4.4 -10.7°
Drops below altitude 10° 21:39:48 10° 322° (NW) 2,308 5.5 -11.5°
Sets 21:42:11 0° 328° (NNW) 3,226 6.2 -11.9°
